Location: Madrid
(40.4000°N, 3.6830°W)
Time: 15:19:50
(UTC+02:00)

ISS - Pass Details

Date: 15 September 2019
Orbit: 411 x 421 km, 51.6° (Epoch: 18 September)

Event Time Altitude Azimuth Distance (km) Brightness Sun altitude
Exits shadow 05:32:39 23° 86° (E) 942 -1.4 -26.5°
Drops below altitude 10° 05:34:10 10° 102° (ESE) 1,486 -0.4 -26.3°
Sets 05:36:21 0° 110° (ESE) 2,348 0.6 -25.9°
